www.pogodaiklimat.ru

Погода и климат >> Архив погоды >> Индия >> Pendra Road


ПОГОДА в Pendra Road

  • Прогноз погоды в Pendra Road
  • Монитор погоды в Pendra Road
  • Климат города

АРХИВ ПОГОДЫ в Pendra Road

Время (UTC), дата Ветер
(напр.,м/с)
 
Видим.   Явления Облачность Т
(С)
Тd
(С)
f
(%)
Тe
(С)
Тes
(С)
Комфортность P
(гПа)
Po
(гПа)
Тmin
(С)
Tmax
(С)
R
(мм)
R24
(мм)
S
(см)
00 18.04 штиль 0 4000 м ясно +24.4 +16.2 60 +28 +28 душно 1007.7 939.0
03 18.04 штиль 0 4000 м ясно +28.4 +14.4 42 +31 +42 душно 1008.7 940.6 +22.8
06 18.04 штиль 0 4000 м 1/0
[Ci fib]
+36.8 +13.1 24 +37 +65 опасность
солнечного
удара
1005.8 939.8
09 18.04 штиль 0 4000 м 4/4 900 м
[Cu med, cong]
+38.6 +12.2 21 +38 +50 очень
жарко
1003.3 937.9
12 18.04 штиль 0 4000 м 1/0
[Ci fib]
+36.0 +12.3 24 +36 +37 очень
жарко
1002.4 936.4 +38.9
15 18.04 штиль 0 4000 м ясно +29.4 +13.2 37 +31 +31 жарко 1004.9 937.4
18 18.04 штиль 0 4000 м ясно +27.0 +10.7 36 +28 +28 жарко 1006.5 938.3
21 18.04 штиль 0 4000 м ясно +26.2 +10.9 38 +27 +27 жарко 1005.5 937.3
00 19.04 штиль 0 4000 м ясно +23.0 +9.6 43 +25 +25 комфорт 1007.0 937.9
03 19.04 штиль 0 4000 м ясно +28.0 +11.2 35 +29 +40 жарко 1007.8 939.6 +21.3
06 19.04 штиль 0 4000 м ясно +35.6 +9.0 20 +34 +63 опасность
солнечного
удара
1004.5 938.6
09 19.04 ЮВ 1 4000 м ясно +39.0 +10.3 18 +38 +54 опасность
солнечного
удара
1001.2 935.9
12 19.04 штиль 0 4000 м ясно +34.4 +14.0 29 +35 +37 очень
жарко
1001.4 935.2 +39.3
15 19.04 штиль 0 4000 м ясно +28.4 +12.3 37 +30 +30 жарко 1003.7 936.2
18 19.04 штиль 0 4000 м ясно +27.4 +12.2 39 +29 +29 жарко 1004.7 936.9
21 19.04 штиль 0 4000 м ясно +26.2 +12.2 42 +28 +28 жарко 1003.9 935.9
00 20.04 штиль 0 4000 м ясно +24.8 +10.8 41 +26 +26 жарко 1005.2 936.7
03 20.04 штиль 0 4000 м ясно +31.4 +12.2 31 +32 +44 жарко 1004.3 937.3 +23.0
06 20.04 штиль 0 4000 м ясно +37.6 +16.9 30 +40 +69 опасность
солнечного
удара
1003.0 937.3
09 20.04 ЮВ 1 4000 м 3/3 750 м
[Cu hum]
+40.0 +22.4 37 +49 +60 опасность
перегрева
1000.2 935.1
12 20.04 штиль 0 4000 м 1/1 750 м
[Cu hum]
+38.4 +16.9 28 +41 +42 опасность
перегрева
999.4 934.5 +40.7
15 20.04 штиль 0 4000 м ясно +32.0 +16.4 39 +35 +35 очень
душно
1003.0 936.2
18 20.04 штиль 0 4000 м ясно +28.8 +14.5 42 +31 +31 жарко 1004.4 936.6
21 20.04 штиль 0 4000 м ясно +27.8 +13.1 40 +29 +29 жарко 1003.5 935.7
00 21.04 штиль 0 4000 м 1/0
[Ci fib]
+27.6 +12.9 40 +29 +29 жарко 1004.1 936.3
03 21.04 штиль 0 4000 м ясно +31.0 +15.4 39 +33 +45 душно 1005.0 937.8 +26.1
06 21.04 штиль 0 4000 м ясно +37.8 +16.8 29 +40 +69 опасность
солнечного
удара
1003.0 937.3
09 21.04 С 1 4000 м 5/5 600 м
[Cu Sc]
+38.2 +15.7 27 +40 +48 очень
душно
1001.2 935.9
12 21.04 С 1 4000 м 8/5 600 м
[Sc diur, vesp Ac trans]
+37.6 +16.1 28 +39 +40 очень
душно
1000.0 934.6 +40.0
15 21.04 штиль 0 4000 м ясно +31.6 +16.2 40 +35 +35 очень
душно
1003.9 937.0
18 21.04 штиль 0 4000 м ясно +28.6 +15.0 44 +31 +31 жарко 1005.8 938.1
21 21.04 штиль 0 4000 м ясно +27.8 +15.2 46 +30 +30 жарко 1005.1 952.2
00 22.04 штиль 0 4000 м ясно +25.4 +15.2 53 +28 +28 жарко 1006.7 948.8
03 22.04 СВ 2 4000 м ясно +29.2 +15.0 42 +32 +41 душно 1008.2 940.6 +23.5
06 22.04 штиль 0 4000 м 1/1 600 м
[Sc]
+36.6 +14.6 27 +38 +63 опасность
солнечного
удара
1006.4 940.4
09 22.04 штиль 0 4000 м 6/5 600 м
[Cu Sc Ac trans]
+37.4 +18.4 33 +41 +50 опасность
перегрева
1003.6 937.9
12 22.04 штиль 0 4000 м 6/6 600 м
[Cu Sc]
+35.0 +14.8 30 +36 +37 очень
жарко
1001.1 936.8 +38.1
15 22.04 штиль 0 4000 м ясно +29.8 +11.1 31 +30 +30 жарко 1006.0 938.5
18 22.04 штиль 0 4000 м ясно +27.2 +11.0 36 +28 +28 жарко 1008.0 939.9
21 22.04 штиль 0 4000 м ясно +26.2 +10.0 36 +27 +27 жарко 1007.1 938.9
00 23.04 штиль 0 4000 м 3/0
[Ac trans]
+24.0 +10.1 41 +25 +25 комфорт 1008.7 939.7
03 23.04 штиль 0 4000 м ясно +28.2 +9.6 31 +28 +40 жарко 1009.9 941.9 +22.2
06 23.04 штиль 0 4000 м 1/0
[Ci fib]
+35.2 +9.4 21 +34 +62 опасность
солнечного
удара
1007.9 941.5
09 23.04 штиль 0 4000 м ясно +37.4 +11.7 21 +37 +56 опасность
солнечного
удара
1002.8 938.1
12 23.04 штиль 0 4000 м ясно +36.0 +13.2 25 +36 +38 очень
жарко
1002.9 936.9 +38.2
15 23.04 штиль 0 4000 м ясно +29.0 +11.8 35 +30 +30 жарко 1007.0 939.2
18 23.04 штиль 0 4000 м ясно +26.4 +8.9 33 +27 +27 жарко 1008.0 939.7
21 23.04 штиль 0 4000 м ясно +25.0 +8.7 35 +25 +25 комфорт 1007.3 938.7
00 24.04 штиль 0 4000 м ясно +23.4 +7.3 36 +24 +24 комфорт 1008.2 939.2
03 24.04 штиль 0 4000 м ясно +28.2 +9.6 31 +28 +40 жарко 1009.8 941.8 +20.6
06 24.04 штиль 0 4000 м ясно +36.4 +8.8 19 +35 +64 опасность
солнечного
удара
1007.1 941.0
09 24.04 штиль 0 4000 м ясно +38.8 +9.4 17 +37 +57 опасность
солнечного
удара
1003.1 937.5
12 24.04 штиль 0 4000 м ясно +36.4 +8.8 19 +35 +36 очень
жарко
1002.3 936.3 +38.8
15 24.04 штиль 0 4000 м ясно +28.8 +9.6 30 +29 +29 жарко 1006.0 938.3
18 24.04 штиль 0 4000 м ясно +26.2 +8.0 32 +26 +26 жарко 1006.7 938.5

 

Местоположение метеостанции Pendra Road (Chhattisgarh, Индия): широта 22.77 долгота 81.90 высота над уровнем моря 625 м.

В архиве по умолчанию представлена погода в Pendra Road за последнюю неделю. Архивные данные за месяц целиком и за предыдущие месяцы, начиная с января 2011 года, Вы можете получить, выбрав интересующий диапазон дат из раскрывающегося списка и нажав кнопку "Ввод!".


*Определитесь, кто Вы:
робот инопланетянин человек

Внимание! Время в таблицах - всемирное. Для получения местного времени необходимо прибавить поправку, которая в Pendra Road равна 5.5 ч.

Смотрите также архив погоды в соседних городах и на ближайших метеорологических станциях:

Погода в Raipur Airport (Chhattisgarh, Индия) (65 км)
Погода в Bilaspur (Chhattisgarh, Индия) (80 км)
Погода в Umaria (Madhya Pradesh, Индия) (134 км)
Погода в Ambikapur (Chhattisgarh, Индия) (145 км)
Погода в Malanjkhand (Madhya Pradesh, Индия) (150 км)
Погода в Mandla (Madhya Pradesh, Индия) (158 км)
Погода в Raipur (Chhattisgarh, Индия) (173 км)
Погода в Sidhi (Madhya Pradesh, Индия) (184 км)
Погода в Durg (Chhattisgarh, Индия) (188 км)
Погода в Rewa (Madhya Pradesh, Индия) (205 км)

Пояснения к столбцам:

Ветер - указаны скорость ветра в м/с - средняя за 10 мин, порывы в срок и между сроками (в фигурных скобках) и направление, откуда дует ветер: С - северный, СВ - северо-восточный, В - восточный, ЮВ - юго-восточный, Ю - южный, ЮЗ - юго-западный, З - западный, СЗ - северо-западный.
Видимость - горизонтальная дальность видимости в метрах или километрах. При видимости от 1 до 10 км при отсутствии осадков обычно наблюдается дымка, при ухудшении видимости до 1 км и менее - туман. В сухую погоду видимость может ухудшаться дымом, пылью или мглою.
Явления - указаны атмосферные явления, наблюдавшиеся в срок или в последний час перед сроком; фигурными скобками обозначены явления, наблюдавшиеся между сроками (за 1-3 часа до срока); квадратными скобками обозначены град или гололедные отложения с указанием их диаметра в мм.
Облачность - указаны через наклонную черту общая и нижняя облачность в баллах и высота нижней границы облаков в метрах; квадратными скобками обозначены формы облаков: Ci - перистые, Cs - перисто-слоистые, Cc - перисто-кучевые, Ac - высококучевые, As - высокослоистые, Sc - слоисто-кучевые, Ns - слоисто-дождевые, Cu - кучевые, Cb - кучево-дождевые. Подробнее классификацию облаков см. в Атласе облаков (PDF).
T - Температура воздуха - температура, измеренная на высоте 2 м над землей.
Td - Температура точки росы - температура, при понижении до которой содержащийся в воздухе водяной пар достигнет насыщения.
f - Относительная влажность воздуха - влажноcть воздуха, измеренная на высоте 2 м над землей.
Te - Эффективная температура - температура, которую ощущает одетый по сезону человек в тени. Характеристика душности погоды. При расчете учитывается влияние влажности воздуха и скорости ветра на теплоощущения человека.
Tes - Эффективная температура на солнце - температура, которую ощущает человек, с поправкой на солнечный нагрев. Характеристика знойности погоды. Зависит от высоты солнца над горизонтом, облачности и скорости ветра. Ночью, в пасмурную погоду, а также при ветре 12 м/с и более поправка равна нулю.
P - Атмосферное давление - приведенное к уровню моря атмосферное давление.
Po - Атмосферное давление - измеренное на уровне метеостанции атмосферное давление.
Tmin - Минимальная температура - минимум температуры воздуха на высоте 2 м над землей.
Tmax - Максимальная температура - максимум температуры воздуха на высоте 2 м над землей.
R - Количество осадков - Количество выпавших осадков за период времени, мм. При наведении курсора мыши на число - период времени, за который выпало указанное количество осадков.
R24 - Количество осадков - Количество выпавших осадков за 24 часа, мм.
S - Снежный покров - Высота снежного покрова, см. При наведении курсора мыши на число - состояние снежного покрова и степень покрытия местности в баллах.